PVG101P LPPT-LEMD

Flight info

Callsign PVG101P
Flight time 1h 3m
Altitude 32000
Route ORVED DCT OGERO DCT ROLDO DCT RUKER Z409 TLD
Aircraft A321/M-SDE3FGHIRWY/LB1

Departure

Time 2026-05-05 19:45
Airport Lisbon Humberto Delgado Airport (LPPT)

Arrival

Time 2026-05-05 20:48
Airport Adolfo Suárez Madrid–Barajas Airport (LEMD)
Time Latitude Longitude Altitude Speed Heading
2026-05-05 19:24 38.76787 -9.13909 355 ft 0 kts 258°
2026-05-05 19:38 38.76791 -9.13882 355 ft 4 kts 258°
2026-05-05 19:39 38.76799 -9.13850 351 ft 4 kts 236°
2026-05-05 19:39 38.76817 -9.13829 352 ft 4 kts 192°
2026-05-05 19:39 38.76830 -9.13828 353 ft 0 kts 168°
2026-05-05 19:41 38.76802 -9.13820 351 ft 9 kts 168°
2026-05-05 19:41 38.76724 -9.13799 345 ft 14 kts 168°
2026-05-05 19:42 38.76629 -9.13780 355 ft 10 kts 197°
2026-05-05 19:42 38.76592 -9.13870 346 ft 14 kts 258°
2026-05-05 19:42 38.76571 -9.13998 355 ft 13 kts 258°
2026-05-05 19:42 38.76561 -9.14133 348 ft 15 kts 285°
2026-05-05 19:43 38.76603 -9.14266 336 ft 15 kts 292°
2026-05-05 19:43 38.76643 -9.14362 334 ft 10 kts 311°
2026-05-05 19:43 38.76694 -9.14362 337 ft 6 kts 24°
2026-05-05 19:43 38.76699 -9.14360 337 ft 0 kts 24°
2026-05-05 19:44 38.76708 -9.14355 335 ft 7 kts 23°
2026-05-05 19:44 38.77054 -9.14169 353 ft 103 kts 22°
2026-05-05 19:44 38.77926 -9.13699 698 ft 147 kts 18°
2026-05-05 19:45 38.78854 -9.13183 1753 ft 150 kts 19°
2026-05-05 19:45 38.79913 -9.12619 2221 ft 181 kts 18°
2026-05-05 19:45 38.81183 -9.11962 2705 ft 213 kts 21°
2026-05-05 19:45 38.82563 -9.10989 3402 ft 240 kts 27°
2026-05-05 19:46 38.84026 -9.09861 4410 ft 248 kts 28°
2026-05-05 19:46 38.85520 -9.08698 5483 ft 254 kts 28°
2026-05-05 19:46 38.87045 -9.07507 6563 ft 260 kts 29°
2026-05-05 19:46 38.88527 -9.06109 7546 ft 269 kts 39°
2026-05-05 19:47 38.89816 -9.04310 8581 ft 277 kts 49°
2026-05-05 19:47 38.90829 -9.02198 9581 ft 287 kts 60°
2026-05-05 19:47 38.91694 -8.99846 10451 ft 299 kts 61°
2026-05-05 19:47 38.92627 -8.97342 10889 ft 323 kts 61°
2026-05-05 19:48 38.93636 -8.94659 11358 ft 343 kts 61°
2026-05-05 19:48 38.94684 -8.91862 12122 ft 351 kts 61°
2026-05-05 19:48 38.95732 -8.88987 12964 ft 358 kts 62°
2026-05-05 19:48 38.96778 -8.86047 13833 ft 364 kts 63°
2026-05-05 19:49 38.97828 -8.83060 14601 ft 370 kts 63°
2026-05-05 19:49 38.98529 -8.81058 15117 ft 373 kts 63°
2026-05-05 19:49 38.99966 -8.76949 16155 ft 380 kts 63°
2026-05-05 19:49 39.01058 -8.73832 16916 ft 385 kts 63°
2026-05-05 19:50 39.02168 -8.70667 17680 ft 390 kts 63°
2026-05-05 19:50 39.03280 -8.67500 18390 ft 396 kts 63°
2026-05-05 19:50 39.04424 -8.64241 19014 ft 402 kts 63°
2026-05-05 19:50 39.05583 -8.60941 19672 ft 406 kts 63°
2026-05-05 19:51 39.06754 -8.57601 20321 ft 411 kts 63°
2026-05-05 19:51 39.07934 -8.54231 20957 ft 415 kts 63°
2026-05-05 19:51 39.09125 -8.50817 21592 ft 420 kts 63°
2026-05-05 19:51 39.10326 -8.47370 22221 ft 424 kts 63°
2026-05-05 19:52 39.11538 -8.43892 22841 ft 428 kts 64°
2026-05-05 19:52 39.12766 -8.40374 23457 ft 432 kts 64°
2026-05-05 19:52 39.14009 -8.36821 23997 ft 437 kts 64°
2026-05-05 19:52 39.15258 -8.33241 24496 ft 441 kts 64°
2026-05-05 19:53 39.16519 -8.29606 24979 ft 446 kts 64°
2026-05-05 19:53 39.17771 -8.25988 25471 ft 450 kts 64°
2026-05-05 19:53 39.19056 -8.22271 25973 ft 454 kts 64°
2026-05-05 19:53 39.20347 -8.18529 26454 ft 458 kts 64°
2026-05-05 19:54 39.21652 -8.14750 26952 ft 462 kts 64°
2026-05-05 19:54 39.22967 -8.10940 27436 ft 466 kts 64°
2026-05-05 19:54 39.24288 -8.07106 27916 ft 470 kts 64°
2026-05-05 19:54 39.25623 -8.03231 28395 ft 474 kts 64°
2026-05-05 19:55 39.26966 -7.99330 28866 ft 478 kts 64°
2026-05-05 19:55 39.28323 -7.95382 29337 ft 482 kts 64°
2026-05-05 19:55 39.29669 -7.91460 29795 ft 486 kts 64°
2026-05-05 19:55 39.30852 -7.87355 30189 ft 491 kts 74°
2026-05-05 19:56 39.31708 -7.83063 30554 ft 495 kts 75°
2026-05-05 19:56 39.32556 -7.78729 30912 ft 498 kts 75°
2026-05-05 19:56 39.33395 -7.74382 31391 ft 498 kts 75°
2026-05-05 19:56 39.34230 -7.70032 31849 ft 499 kts 75°
2026-05-05 19:57 39.35067 -7.65671 32012 ft 499 kts 75°
2026-05-05 19:57 39.36454 -7.58558 32038 ft 486 kts 74°
2026-05-05 19:58 39.38157 -7.50137 32035 ft 483 kts 74°
2026-05-05 19:58 39.40141 -7.40378 32026 ft 483 kts 74°
2026-05-05 19:59 39.41824 -7.31962 32026 ft 483 kts 74°
2026-05-05 19:59 39.43213 -7.24938 32024 ft 484 kts 74°
2026-05-05 20:00 39.44876 -7.16480 32036 ft 484 kts 74°
2026-05-05 20:00 39.46535 -7.08072 32025 ft 484 kts 74°
2026-05-05 20:01 39.48193 -6.99617 32028 ft 485 kts 74°
2026-05-05 20:01 39.49840 -6.91158 32021 ft 485 kts 74°
2026-05-05 20:02 39.51484 -6.82689 32013 ft 485 kts 74°
2026-05-05 20:02 39.53126 -6.74214 32009 ft 485 kts 74°
2026-05-05 20:03 39.54769 -6.65712 32002 ft 486 kts 75°
2026-05-05 20:03 39.56398 -6.57211 32003 ft 486 kts 75°
2026-05-05 20:04 39.58008 -6.48768 31999 ft 486 kts 75°
2026-05-05 20:04 39.59628 -6.40262 31995 ft 486 kts 75°
2026-05-05 20:05 39.61247 -6.31733 31987 ft 487 kts 75°
2026-05-05 20:05 39.62859 -6.23193 31981 ft 487 kts 75°
2026-05-05 20:06 39.64461 -6.14642 32008 ft 487 kts 75°
2026-05-05 20:06 39.66056 -6.06104 32010 ft 487 kts 75°
2026-05-05 20:07 39.67653 -5.97548 32003 ft 486 kts 75°
2026-05-05 20:07 39.69206 -5.89063 31980 ft 487 kts 78°
2026-05-05 20:08 39.69889 -5.80306 31983 ft 488 kts 85°
2026-05-05 20:08 39.70449 -5.71527 31979 ft 488 kts 85°
2026-05-05 20:09 39.70995 -5.62736 31984 ft 489 kts 85°
2026-05-05 20:09 39.71541 -5.53929 31986 ft 489 kts 85°
2026-05-05 20:10 39.72075 -5.45169 31983 ft 489 kts 85°
2026-05-05 20:10 39.72652 -5.36360 31983 ft 489 kts 84°
2026-05-05 20:11 39.73239 -5.27542 31660 ft 491 kts 85°
2026-05-05 20:11 39.73530 -5.23117 31406 ft 491 kts 85°
2026-05-05 20:11 39.73813 -5.18695 31160 ft 491 kts 85°
2026-05-05 20:11 39.74092 -5.14267 30908 ft 491 kts 85°
2026-05-05 20:12 39.74370 -5.09844 30659 ft 492 kts 85°
2026-05-05 20:12 39.74647 -5.05411 30415 ft 492 kts 85°
2026-05-05 20:12 39.74926 -5.00984 30173 ft 492 kts 85°
2026-05-05 20:12 39.75203 -4.96554 29913 ft 492 kts 85°
2026-05-05 20:13 39.75479 -4.92114 29623 ft 493 kts 85°
2026-05-05 20:13 39.75749 -4.87731 29198 ft 493 kts 85°
2026-05-05 20:13 39.76017 -4.83304 28381 ft 489 kts 85°
2026-05-05 20:13 39.76282 -4.78889 27618 ft 484 kts 85°
2026-05-05 20:14 39.76542 -4.74539 26854 ft 480 kts 85°
2026-05-05 20:14 39.76796 -4.70232 26101 ft 476 kts 85°
2026-05-05 20:14 39.77048 -4.65964 25354 ft 472 kts 85°
2026-05-05 20:14 39.77291 -4.61731 24629 ft 467 kts 85°
2026-05-05 20:15 39.77534 -4.57534 23994 ft 461 kts 84°
2026-05-05 20:15 39.77771 -4.53445 23325 ft 457 kts 84°
2026-05-05 20:15 39.78010 -4.49353 22676 ft 450 kts 84°
2026-05-05 20:15 39.78244 -4.45333 22091 ft 442 kts 84°
2026-05-05 20:16 39.78485 -4.41381 21585 ft 433 kts 81°
2026-05-05 20:16 39.79251 -4.37737 21474 ft 407 kts 60°
2026-05-05 20:16 39.80729 -4.34651 21382 ft 403 kts 50°
2026-05-05 20:16 39.82196 -4.31491 21287 ft 409 kts 57°
2026-05-05 20:17 39.83554 -4.28227 21200 ft 410 kts 57°
2026-05-05 20:17 39.84903 -4.24965 21108 ft 409 kts 57°
2026-05-05 20:17 39.86246 -4.21706 21008 ft 408 kts 57°
2026-05-05 20:17 39.87586 -4.18442 20786 ft 408 kts 58°
2026-05-05 20:18 39.88915 -4.15201 20250 ft 403 kts 58°
2026-05-05 20:18 39.90230 -4.11988 19728 ft 399 kts 58°
2026-05-05 20:18 39.91512 -4.08853 19194 ft 394 kts 58°
2026-05-05 20:18 39.92791 -4.05719 18660 ft 390 kts 57°
2026-05-05 20:19 39.94062 -4.02618 18075 ft 386 kts 57°
2026-05-05 20:19 39.95322 -3.99548 17488 ft 381 kts 58°
2026-05-05 20:19 39.96562 -3.96520 16950 ft 376 kts 58°
2026-05-05 20:19 39.97780 -3.93543 16347 ft 370 kts 59°
2026-05-05 20:20 39.98984 -3.90599 15797 ft 364 kts 59°
2026-05-05 20:20 40.00150 -3.87737 15239 ft 359 kts 60°
2026-05-05 20:20 40.01313 -3.84879 14684 ft 354 kts 60°
2026-05-05 20:20 40.02460 -3.82059 14128 ft 350 kts 60°
2026-05-05 20:21 40.03595 -3.79263 13536 ft 346 kts 60°
2026-05-05 20:21 40.04716 -3.76500 12967 ft 342 kts 61°
2026-05-05 20:21 40.05807 -3.73807 12727 ft 327 kts 60°
2026-05-05 20:21 40.06845 -3.71246 12596 ft 311 kts 60°
2026-05-05 20:22 40.07836 -3.68797 12361 ft 301 kts 60°
2026-05-05 20:22 40.08809 -3.66394 11982 ft 297 kts 60°
2026-05-05 20:22 40.09771 -3.64009 11568 ft 295 kts 61°
2026-05-05 20:22 40.10710 -3.61667 11165 ft 293 kts 61°
2026-05-05 20:23 40.11651 -3.59310 10759 ft 291 kts 61°
2026-05-05 20:23 40.12574 -3.57001 10560 ft 282 kts 61°
2026-05-05 20:23 40.13473 -3.54753 10254 ft 278 kts 61°
2026-05-05 20:23 40.14365 -3.52521 10049 ft 276 kts 61°
2026-05-05 20:24 40.15258 -3.50286 9708 ft 280 kts 61°
2026-05-05 20:24 40.16214 -3.48069 9358 ft 275 kts 53°
2026-05-05 20:24 40.17474 -3.46245 9121 ft 266 kts 38°
2026-05-05 20:24 40.18969 -3.44931 8843 ft 258 kts 24°
2026-05-05 20:25 40.20596 -3.44001 8425 ft 254 kts 20°
2026-05-05 20:25 40.22197 -3.43105 7822 ft 248 kts 20°
2026-05-05 20:25 40.23778 -3.42213 7190 ft 245 kts 20°
2026-05-05 20:25 40.25323 -3.41339 6776 ft 240 kts 20°
2026-05-05 20:26 40.26850 -3.40474 6391 ft 237 kts 20°
2026-05-05 20:26 40.28361 -3.39616 6001 ft 234 kts 21°
2026-05-05 20:26 40.29805 -3.38832 5879 ft 215 kts 15°
2026-05-05 20:26 40.31227 -3.38585 5718 ft 199 kts 356°
2026-05-05 20:27 40.32544 -3.38930 5528 ft 191 kts 338°
2026-05-05 20:27 40.33687 -3.39787 5305 ft 191 kts 322°
2026-05-05 20:27 40.34743 -3.40856 5056 ft 192 kts 322°
2026-05-05 20:27 40.35792 -3.41915 4812 ft 192 kts 323°
2026-05-05 20:28 40.36817 -3.42952 4565 ft 177 kts 323°
2026-05-05 20:28 40.37709 -3.43853 4347 ft 147 kts 324°
2026-05-05 20:28 40.38467 -3.44620 4151 ft 130 kts 324°
2026-05-05 20:28 40.39163 -3.45323 3977 ft 124 kts 324°
2026-05-05 20:29 40.39839 -3.46006 3820 ft 121 kts 324°
2026-05-05 20:29 40.40507 -3.46680 3654 ft 120 kts 323°
2026-05-05 20:29 40.41161 -3.47342 3499 ft 120 kts 323°
2026-05-05 20:29 40.41823 -3.48012 3343 ft 120 kts 323°
2026-05-05 20:30 40.42481 -3.48678 3128 ft 120 kts 322°
2026-05-05 20:30 40.43149 -3.49354 2949 ft 121 kts 321°
2026-05-05 20:30 40.43824 -3.50038 2793 ft 123 kts 322°
2026-05-05 20:30 40.44493 -3.50720 2637 ft 123 kts 321°
2026-05-05 20:31 40.45164 -3.51408 2514 ft 122 kts 321°
2026-05-05 20:31 40.45952 -3.52224 3197 ft 155 kts 320°
2026-05-05 20:31 40.46871 -3.53159 3834 ft 180 kts 322°
2026-05-05 20:31 40.47898 -3.54197 4571 ft 189 kts 323°
2026-05-05 20:32 40.48952 -3.55232 5473 ft 189 kts 323°
2026-05-05 20:32 40.49938 -3.56376 5889 ft 193 kts 307°
2026-05-05 20:32 40.50715 -3.57899 5988 ft 217 kts 304°
2026-05-05 20:32 40.51575 -3.59635 6006 ft 232 kts 303°
2026-05-05 20:33 40.52459 -3.61431 6006 ft 234 kts 303°
2026-05-05 20:33 40.53347 -3.63235 6009 ft 235 kts 304°
2026-05-05 20:33 40.54238 -3.65042 6009 ft 235 kts 304°
2026-05-05 20:33 40.55117 -3.66825 6009 ft 235 kts 304°
2026-05-05 20:34 40.56007 -3.68630 6008 ft 236 kts 303°
2026-05-05 20:34 40.56831 -3.70491 6006 ft 236 kts 292°
2026-05-05 20:34 40.57058 -3.72648 6009 ft 244 kts 266°
2026-05-05 20:34 40.56458 -3.74752 6012 ft 253 kts 238°
2026-05-05 20:35 40.55100 -3.76245 6011 ft 261 kts 207°
2026-05-05 20:35 40.53303 -3.76665 6017 ft 268 kts 181°
2026-05-05 20:35 40.51429 -3.76659 6015 ft 268 kts 184°
2026-05-05 20:35 40.49563 -3.76725 6006 ft 266 kts 177°
2026-05-05 20:36 40.47802 -3.76093 6009 ft 262 kts 160°
2026-05-05 20:36 40.46111 -3.75199 6007 ft 262 kts 159°
2026-05-05 20:36 40.44432 -3.74285 6009 ft 261 kts 159°
2026-05-05 20:36 40.42755 -3.73365 6009 ft 262 kts 159°
2026-05-05 20:37 40.41144 -3.72285 6009 ft 254 kts 144°
2026-05-05 20:37 40.40232 -3.71345 6012 ft 251 kts 140°
2026-05-05 20:37 40.38496 -3.69322 6009 ft 249 kts 137°
2026-05-05 20:37 40.37232 -3.67819 6012 ft 248 kts 137°
2026-05-05 20:38 40.35952 -3.66295 6010 ft 248 kts 137°
2026-05-05 20:38 40.34671 -3.64771 6004 ft 248 kts 137°
2026-05-05 20:38 40.33440 -3.63189 6008 ft 246 kts 132°
2026-05-05 20:38 40.32335 -3.61560 6005 ft 234 kts 131°
2026-05-05 20:39 40.31262 -3.59955 6003 ft 233 kts 130°
2026-05-05 20:39 40.30195 -3.58357 6009 ft 232 kts 130°
2026-05-05 20:39 40.29129 -3.56759 6008 ft 233 kts 130°
2026-05-05 20:39 40.28069 -3.55171 5984 ft 231 kts 130°
2026-05-05 20:40 40.27019 -3.53602 6002 ft 232 kts 130°
2026-05-05 20:40 40.25953 -3.52008 6005 ft 232 kts 130°
2026-05-05 20:40 40.24889 -3.50417 6009 ft 232 kts 130°
2026-05-05 20:40 40.24043 -3.48628 5899 ft 232 kts 107°
2026-05-05 20:41 40.23915 -3.46578 5743 ft 224 kts 77°
2026-05-05 20:41 40.24494 -3.44735 5697 ft 218 kts 50°
2026-05-05 20:41 40.25591 -3.43414 5651 ft 213 kts 32°
2026-05-05 20:41 40.26799 -3.42288 5606 ft 213 kts 32°
2026-05-05 20:42 40.28002 -3.41162 5560 ft 213 kts 33°
2026-05-05 20:42 40.29207 -3.40034 5513 ft 213 kts 33°
2026-05-05 20:42 40.30473 -3.39066 5460 ft 210 kts 17°
2026-05-05 20:42 40.31881 -3.38826 5419 ft 207 kts 354°
2026-05-05 20:43 40.33240 -3.39380 5341 ft 206 kts 330°
2026-05-05 20:43 40.34388 -3.40484 5115 ft 205 kts 322°
2026-05-05 20:43 40.35513 -3.41630 4880 ft 204 kts 322°
2026-05-05 20:43 40.36611 -3.42743 4613 ft 190 kts 323°
2026-05-05 20:44 40.37578 -3.43721 4378 ft 159 kts 323°
2026-05-05 20:44 40.38384 -3.44536 4168 ft 135 kts 323°
2026-05-05 20:44 40.39096 -3.45255 3988 ft 125 kts 323°
2026-05-05 20:44 40.39775 -3.45941 3826 ft 121 kts 323°
2026-05-05 20:45 40.41088 -3.47269 3511 ft 119 kts 323°
2026-05-05 20:45 40.41742 -3.47930 3358 ft 118 kts 323°
2026-05-05 20:45 40.42393 -3.48588 3149 ft 118 kts 323°
2026-05-05 20:46 40.43060 -3.49264 2984 ft 121 kts 321°
2026-05-05 20:46 40.43499 -3.49708 2880 ft 119 kts 321°
2026-05-05 20:46 40.44162 -3.50380 2723 ft 121 kts 322°
2026-05-05 20:46 40.44826 -3.51056 2575 ft 120 kts 322°
2026-05-05 20:47 40.45695 -3.51939 2357 ft 118 kts 323°
2026-05-05 20:47 40.46131 -3.52382 2226 ft 118 kts 321°
2026-05-05 20:47 40.46787 -3.53042 2104 ft 122 kts 321°
2026-05-05 20:47 40.47450 -3.53716 1962 ft 121 kts 321°
2026-05-05 20:48 40.48072 -3.54352 1933 ft 98 kts 321°
2026-05-05 20:48 40.48530 -3.54820 1942 ft 70 kts 322°
2026-05-05 20:48 40.48776 -3.55140 1952 ft 35 kts 297°
2026-05-05 20:48 40.48860 -3.55396 1953 ft 26 kts 296°
2026-05-05 20:49 40.48974 -3.55546 1954 ft 23 kts 321°
2026-05-05 20:49 40.49101 -3.55676 1958 ft 23 kts 322°
2026-05-05 20:49 40.49229 -3.55806 1961 ft 24 kts 322°
2026-05-05 20:49 40.49299 -3.55914 1960 ft 14 kts 278°
2026-05-05 20:50 40.49299 -3.56065 1959 ft 19 kts 269°
2026-05-05 20:50 40.49261 -3.56140 1959 ft 10 kts 185°
2026-05-05 20:50 40.49162 -3.56140 1959 ft 18 kts 180°
2026-05-05 20:50 40.49023 -3.56139 1959 ft 22 kts 180°
2026-05-05 20:51 40.48862 -3.56138 1959 ft 24 kts 179°
2026-05-05 20:51 40.48769 -3.56193 1961 ft 12 kts 255°
2026-05-05 20:51 40.48768 -3.56321 1964 ft 17 kts 269°
2026-05-05 20:51 40.48768 -3.56497 1974 ft 20 kts 270°
2026-05-05 20:52 40.48768 -3.56682 1978 ft 20 kts 268°
2026-05-05 20:52 40.48767 -3.56875 1981 ft 22 kts 270°
2026-05-05 20:52 40.48766 -3.57080 1984 ft 23 kts 269°
2026-05-05 20:52 40.48765 -3.57277 1988 ft 19 kts 270°
2026-05-05 20:53 40.48765 -3.57446 1990 ft 17 kts 268°
2026-05-05 20:53 40.48763 -3.57591 1991 ft 17 kts 270°
2026-05-05 20:53 40.48763 -3.57737 1993 ft 15 kts 269°
2026-05-05 20:53 40.48762 -3.57874 1997 ft 14 kts 268°
2026-05-05 20:54 40.48743 -3.57925 1998 ft 4 kts 188°
2026-05-05 20:54 40.48693 -3.57926 1999 ft 11 kts 180°
2026-05-05 20:54 40.48589 -3.57911 1999 ft 17 kts 162°
2026-05-05 20:54 40.48466 -3.57829 1993 ft 21 kts 150°
2026-05-05 20:55 40.48347 -3.57725 1994 ft 21 kts 143°
2026-05-05 20:55 40.48230 -3.57608 1998 ft 20 kts 143°
2026-05-05 20:55 40.48126 -3.57501 2001 ft 18 kts 142°
2026-05-05 20:55 40.48029 -3.57403 2003 ft 19 kts 142°
2026-05-05 20:56 40.47921 -3.57293 2003 ft 20 kts 141°
2026-05-05 20:56 40.47810 -3.57181 2001 ft 20 kts 143°
2026-05-05 20:56 40.47709 -3.57079 1998 ft 15 kts 141°
2026-05-05 20:56 40.47641 -3.57068 1996 ft 9 kts 223°
2026-05-05 20:57 40.47647 -3.57134 1996 ft 9 kts 314°
2026-05-05 20:57 40.47703 -3.57190 1999 ft 11 kts 323°
2026-05-05 20:57 40.47770 -3.57258 2002 ft 14 kts 322°
2026-05-05 20:57 40.47831 -3.57325 2003 ft 6 kts 301°
2026-05-05 20:58 40.47827 -3.57369 2002 ft 4 kts 256°
2026-05-05 20:58 40.47819 -3.57406 2005 ft 4 kts 253°
2026-05-05 20:58 40.47817 -3.57417 2005 ft 0 kts 253°